Torna al catalogo

STARLINK-32528

AttivoComunicazioniVLEO
NORAD 61724·PAYLOAD·🇺🇸 United States

Lanciato Oct 30, 2024 da Cape Canaveral Space Force Station

Loading…

Prossimi Passaggi (prossime 24 ore)

TLE

AggiornatoSource: CelesTrak SupGP

Epoca: Sep 15, 2026, 02:50 UTC

1 61724C 24196T   26258.11854167  .00023534  00000+0  69517-3 0  2583
2 61724  53.1579 298.6325 0001275  91.0976 100.1886 15.34385443    19

Traccia STARLINK-32528 in tempo reale con AllMySat

Download on the App Store